Flag for Germany Weather past 2 weeks in Bocholt, North Rhine-Westphalia, Germany

Now
52 °F

Rain. Partly cloudy.


Feels Like: 45 °F
Forecast: 38 / 46 °F
Wind: 29 mph from West

Location: Niederrhein

Current Time: Mar 31, 2015 at 7:42:59 AM

Latest Report: Mar 31, 2015 at 6:50 AM


Visibility: 2 mi

Pressure: 29.24 "Hg

Humidity: 88%

Dew point: 48 °F

Location of BocholtLocation

Historic Weather in Bocholt — Graph

°F

Bocholt temperature yesterday

Maximum temperature yesterday: 48 °F (at 2:50 PM)
Minimum temperature yesterday: 43 °F (at 4:50 AM)
Average temperature yesterday: 45 °F

Past Weeks' High & Low Weather Summary

 TemperatureHumidityPressure
High63 °F (Mar 17, 2:20 PM)100% (Mar 18, 6:50 AM)30.39 "Hg (Mar 18, 6:50 AM)
Low30 °F (Mar 23, 5:50 AM)42% (Mar 17, 2:20 PM)29.21 "Hg (Mar 29, 7:20 PM)
Average45 °F79%30.00 "Hg
* Reported Mar 16 5:20 AM — Mar 31 6:20 AM, Bocholt, Weather by CustomWeather, © 2015

Note: Actual official high and low records may vary slightly from our data, if they occured in-between our weather recording intervals... More about our weather records

Advertising

Bocholt weather history for previous 24 hours

 ConditionsComfort  
Time TempWeatherWind HumidityBarometerVisibility
6:20 AM
Tue, Mar 31
52 °FRain. Partly cloudy.29 mph88%29.24 "Hg1 mi
5:50 AM52 °FRain showers. Passing clouds.25 mph88%29.27 "Hg1 mi
5:20 AM52 °FRain. Passing clouds.30 mph94%29.27 "Hg1 mi
11:50 PM
Mon, Mar 30
43 °FSprinkles. Passing clouds.13 mph76%29.68 "Hg6 mi
11:20 PM45 °FSprinkles. Passing clouds.15 mph66%29.71 "HgN/A
10:50 PM43 °FPassing clouds.7 mph66%29.74 "HgN/A
10:20 PM43 °FClear.7 mph61%29.74 "Hg10 mi
9:50 PM43 °FSunny.6 mph61%29.77 "Hg10 mi
9:20 PM43 °FSunny.6 mph61%29.80 "Hg10 mi
8:50 PM43 °FSunny.6 mph61%29.83 "Hg10 mi
8:20 PM45 °FSunny.9 mph57%29.83 "Hg10 mi
7:50 PM46 °FSunny.13 mph53%29.83 "Hg10 mi
7:20 PM46 °FSunny.12 mph53%29.83 "Hg10 mi
6:50 PM46 °FSunny.18 mph50%29.83 "Hg10 mi
6:20 PM48 °FSunny.15 mph46%29.83 "Hg10 mi
5:50 PM48 °FPassing clouds.16 mph46%29.83 "HgN/A
5:20 PM48 °FPassing clouds.18 mph50%29.83 "HgN/A
4:50 PM48 °FScattered clouds.21 mph54%29.80 "HgN/A
4:20 PM46 °FScattered clouds.24 mph50%29.80 "HgN/A
3:50 PM46 °FPassing clouds.18 mph57%29.80 "HgN/A
3:20 PM48 °FPartly sunny.16 mph50%29.77 "HgN/A
2:50 PM48 °FPartly sunny.22 mph54%29.77 "HgN/A
2:20 PM46 °FPassing clouds.24 mph53%29.74 "HgN/A
1:50 PM46 °FPartly sunny.25 mph62%29.71 "HgN/A
1:20 PM46 °FPartly sunny.23 mph66%29.71 "HgN/A
12:50 PM46 °FScattered showers. Broken clouds.23 mph66%29.68 "HgN/A
12:20 PM46 °FScattered showers. Partly sunny.20 mph71%29.65 "HgN/A
11:50 AM46 °FSprinkles. Partly sunny.17 mph71%29.65 "HgN/A
11:20 AM46 °FPartly sunny.20 mph62%29.65 "HgN/A
10:50 AM46 °FPartly sunny.21 mph62%29.62 "HgN/A
9:50 AM45 °FScattered clouds.15 mph66%29.59 "HgN/A
9:20 AM45 °FPartly sunny.20 mph66%29.59 "HgN/A
8:50 AM45 °FPassing clouds.16 mph71%29.56 "HgN/A
8:20 AM45 °FPassing clouds.16 mph71%29.53 "HgN/A
7:50 AM45 °FPassing clouds.16 mph76%29.53 "HgN/A
7:20 AM43 °FPassing clouds.16 mph76%29.50 "HgN/A
Weather by CustomWeather, © 2015

See weather overviewHow to use our weather pages